Tous vos exploits sur  Logo Planète Marathon le site 100% Marathon

Marathon du Hainaut/de l'Escaut

Le 25/04/1999 - 4ème édition - 200 arrivants                                                       Archives à consulter

Clmt. Temps Nom Prénom Club Organisme Catégorie
1 2:26:15 Desaever Carlo SENH (+)
2 2:27:28 Konstantinov Nikolai (RUS) SENH (+)
3 2:28:52 Mauro Mario SENH (+)
4 2:34:11 Duparfait Jean VM40 (+)
5 2:40:46 Vanderlinden Marc (BEL) VM40 (+)
6 2:42:39 Delepine Bernard SENH (+)
7 2:43:32 Francois Jean Marie PUPI (+)
8 2:45:54 Weis Leon VM45 (+)
9 2:51:24 Stawiski Didier SENH (+)
10 2:57:29 Thiebaux Bertrand SENH (+)
11 2:57:49 Bastaens Francis SENH (+)
12 3:00:04 Waterlot Hugues SENH (+)
13 3:04:12 Djenane Houider SENH (+)
14 3:05:56 Soublin Philippe SENH (+)
15 3:06:38 Avila Angel SENH (+)
16 3:10:03 Dejaegere Christiaan VM45 (+)
17 3:11:41 Castrale Jean VM45 (+)
18 3:12:16 Delange Dominique VM40 (+)
19 3:13:26 Dewaste Ghislain VM45 (+)
20 3:13:31 Merchie Dominique SENH (+)
21 3:14:23 Funda Bruno SENH (+)
22 3:14:44 Valentin Noel VM45 (+)
23 3:14:44 Boitel Christophe SENH (+)
24 3:15:09 Stevigny Patricia VF35 (+)
25 3:15:41 Plateau Frederic SENH (+)
26 3:16:37 Loppinet Bruno SENH (+)
27 3:16:53 Lefrere Constant VM50 (+)
28 3:17:41 Boektaels Thierry SENH (+)
29 3:18:04 Simon Roland VM50 (+)
30 3:18:15 Soyez Franck SENH (+)
31 3:18:54 Dellenbach Guillaume VM65 (+)
32 3:19:12 Gillon Alain VM45 (+)
33 3:22:04 Pellin Marcel VM55 (+)
34 3:24:00 Crepin Jean-francois SENH (+)
35 3:24:12 Barenne Alain SENH (+)
36 3:24:12 Polo Reno VM50 (+)
37 3:24:26 Vandaele Ronny VM45 (+)
38 3:24:36 Montigne Jean Claude VM40 (+)
39 3:24:47 Deleume Bernard VM45 (+)
40 3:24:49 Gronier Philippe VM45 (+)
41 3:24:59 Doyer Patrick VM40 (+)
42 3:25:22 Paul Bernard VM50 (+)
43 3:25:25 Robert Francois VM45 (+)
44 3:25:26 Smidlik Sylvain VM45 (+)
45 3:25:35 Polspoel Dirk VM45 (+)
46 3:25:35 Bouveris Jacques VM45 (+)
47 3:25:44 Cartiaux Muriel SENF (+)
48 3:26:37 Chartier Pascal VM40 (+)
49 3:26:47 Petit Didier SENH (+)
50 3:26:56 Bostelaar Dun VM45 (+)
51 3:27:12 Vercoutter Cedric SENH (+)
52 3:27:48 Pollet Jean Yves SENH (+)
53 3:29:17 Aussavis Francois SENH (+)
54 3:29:21 Ghibaudo Sabine SENF (+)
55 3:29:22 Arp Didier VM40 (+)
56 3:29:39 Scieur Jean-michel SENH (+)
57 3:30:13 Petit Christian VM65 (+)
58 3:30:56 Piat Stephanne SENH (+)
59 3:31:06 Delattre Pierre VM40 (+)
60 3:31:08 Dron Frederic SENH (+)
61 3:31:14 Lezy Xavier SENH (+)
62 3:31:55 Bergmans Guido VM40 (+)
63 3:31:58 Wiart Frederic SENH (+)
64 3:33:09 Verdy Therese VF45 (+)
65 3:34:22 Lebleu Jacques VM45 (+)
66 3:34:45 Dreau Jean-michel VM40 (+)
67 3:35:37 Mahieu Roger VM50 (+)
68 3:36:31 Delmulle Alain SENH (+)
69 3:36:37 Balla Kaci SENH (+)
70 3:36:53 Vancoillie Dominique VM40 (+)
71 3:38:23 Tournemaine Jean Marie SENH (+)
72 3:39:40 Dautreaux Patrick VM50 (+)
73 3:39:53 Lacomblez Jerome SENH (+)
74 3:40:38 Nolens Katia VF45 (+)
75 3:40:39 Lezy Sylvie SENF (+)
76 3:40:41 Gregoire Gilles SENH (+)
77 3:40:49 Harvengt Philippe SENH (+)
78 3:40:49 Simon Fabrice SENH (+)
79 3:40:58 Hotte Jean-marc VM40 (+)
80 3:41:13 Drapeaud Alain VM50 (+)
81 3:41:38 Deulin Franck SENH (+)
82 3:42:22 Bilger Nicolas SENH (+)
83 3:43:03 Ducorney Lucien VM45 (+)
84 3:43:19 Geerts Paul VM45 (+)
85 3:44:20 Forget Thierry VM40 (+)
86 3:44:23 Malice Philippe VM40 (+)
87 3:44:52 Raimbault Patrick VM40 (+)
88 3:44:57 Cardon Jean-luc VM40 (+)
89 3:44:57 Abramink Juergen VM40 (+)
90 3:45:19 Buteneers Joseph VM45 (+)
91 3:45:27 Dos Santos Euler SENH (+)
92 3:45:53 Baron Eric SENH (+)
93 3:46:11 Demoulin Alain SENH (+)
94 3:46:18 Hoyois Alain SENH (+)
95 3:46:22 Rousseau Fabrice VM40 (+)
96 3:46:39 Abdedain Tayeb SENH (+)
97 3:47:32 Mallet Didier SENH (+)
98 3:49:30 Bourgeois Georges VM60 (+)
99 3:50:12 Dhaisne Jean Yves VM50 (+)
100 3:50:43 Carmont Niandi VF35 (+)
101 3:50:44 Carmont Gerald SENH (+)
102 3:51:12 Delaby Francis VM50 (+)
103 3:51:12 Scoriel Boris VM45 (+)
104 3:51:57 Gomard Gerard VM45 (+)
105 3:52:06 Hoyois Guy VM40 (+)
106 3:52:09 Dos Santos Abel SENH (+)
107 3:52:21 Lepage Claude VM45 (+)
108 3:52:43 Catteau Bernard VM45 (+)
109 3:53:05 Vanryssel Jean-pierre VM40 (+)
110 3:53:38 Hetroit Claude VM40 (+)
111 3:53:46 Benoist Richard VM40 (+)
112 3:53:52 Savonni Georget VM40 (+)
113 3:53:55 Roberti Jean-pierre SENH (+)
114 3:54:51 Lansiaux Gerard SENH (+)
115 3:55:20 Voisin Gerard VM40 (+)
116 3:55:21 Lempereur Gilles SENH (+)
117 3:55:36 Michalski Daniel VM50 (+)
118 3:56:01 Rousseau Christine VF40 (+)
119 3:57:02 Durand Patrick VM45 (+)
120 3:57:08 Dehaeze Pascal VM40 (+)
121 3:57:22 Deprez Thierry SENH (+)
122 3:58:00 Abraham Francis VM50 (+)
123 3:58:00 Lefranc Marie VF35 (+)
124 3:58:42 Bausier Laurent SENH (+)
125 3:58:49 Bouchier Armand SENH (+)
126 3:59:16 Mailfert Celina SENF (+)
127 4:00:09 Guinemer Yves SENH (+)
128 4:00:17 Menigault Denis VM40 (+)
129 4:01:20 Carion Francis VM40 (+)
130 4:01:37 Choukrane Mustafa SENH (+)
131 4:01:57 Sierens Johan VM45 (+)
132 4:02:40 Imbert Michel VM40 (+)
133 4:03:25 Loumachi Alain VM45 (+)
134 4:04:03 Poty Hubert VM40 (+)
135 4:04:08 Lecorf Alain VM40 (+)
136 4:04:19 Dumont Jean Yves SENH (+)
137 4:04:19 Charnay Christian VM45 (+)
138 4:04:39 Potier Dominique SENH (+)
139 4:04:49 Lasson Jean Luc VM40 (+)
140 4:06:08 Pasdeloup Jean-claude VM45 (+)
141 4:06:36 Baudoux Francois VM65 (+)
142 4:06:46 Froidure Michel VM40 (+)
143 4:06:47 Nonneau Gilles VM40 (+)
144 4:08:03 Schotanus Pier VM65 (+)
145 4:08:41 Evrard Pascal SENH (+)
146 4:08:47 Pach Jean Michel SENH (+)
147 4:08:51 Kaanendonk Teun VM50 (+)
148 4:09:05 Merckx Karel VM45 (+)
149 4:09:54 Landrau Lionel SENH (+)
150 4:10:38 Auverdin Mathieu SENH (+)
151 4:11:31 Gervais Anne VF55 (+)
152 4:11:31 Golder Patrick VM40 (+)
153 4:11:39 Boursier Gilles SENH (+)
154 4:12:08 Bodin Michel VM45 (+)
155 4:12:17 Demarcq Pascal SENH (+)
156 4:13:25 Denin Jean Marc VM40 (+)
157 4:14:05 Mathieu Raphael SENH (+)
158 4:15:02 Montuelle David SENH (+)
159 4:16:28 Nachtergael Alain VM40 (+)
160 4:16:46 Gourlin Bertrand SENH (+)
161 4:17:37 Jousseaume Claudine VF35 (+)
162 4:18:21 Lepage Nelly VF35 (+)
163 4:18:36 Baurin Philippe VM40 (+)
164 4:18:37 Guinot Pascal SENH (+)
165 4:19:16 David Ria VM40 (+)
166 4:19:24 Saint-yves David SENH (+)
167 4:23:01 Dussart Michel VM50 (+)
168 4:23:14 Hoogstoel Pascal VM40 (+)
169 4:23:27 Monne Giovanna VF35 (+)
170 4:23:29 Schulz Gerard VM40 (+)
171 4:23:43 Cousin Benoit VM40 (+)
172 4:24:00 Dekhli Kamal VM45 (+)
173 4:24:31 Maillioux Simone VF45 (+)
174 4:27:06 Geerts Andre VM40 (+)
175 4:31:32 Vandevelde Jocelyne VF40 (+)
176 4:31:32 Delobel Franck JUNI (+)
177 4:32:56 Vermulst Ivan VM45 (+)
178 4:33:23 Quetaud Laurent SENH (+)
179 4:33:43 Carlier Philippe SENH (+)
180 4:34:15 Grunenberge Georges VM55 (+)
181 4:34:18 Corme Philippe SENH (+)
182 4:34:20 Steen Van Der Hans VM50 (+)
183 4:34:23 Mol Ben VM45 (+)
184 4:34:42 Folcken Nadine VF35 (+)
185 4:34:43 Dessaint Jean VM65 (+)
186 4:35:36 Bertin Gerard VM45 (+)
187 4:40:53 Hubert Lysiane VF40 (+)
188 4:40:54 Tanchereau Thierry SENH (+)
189 4:44:22 Gueguen Frank SENH (+)
190 4:57:31 Golman Robert VM40 (+)
191 4:57:46 Guerlez Jean-yves SENH (+)
192 5:02:20 Barette Gilbert SENH (+)
193 5:02:22 Hocq Christian VM45 (+)
194 5:02:31 Watiau Bernard VM50 (+)
195 5:02:47 Devaux Paul VM40 (+)
196 5:03:44 Dupont Norbert JUNI (+)
197 5:04:45 Puniez Andre SENH (+)
198 5:04:59 Ramackers Philippe VM45 (+)
199 5:05:03 Gillon Michel VM40 (+)
200 5:05:39 Bernard Christian VM50 (+)